SAS78C EGLL-EKCH

Flight info

Callsign SAS78C
Flight time 1h 32m
Altitude 39000
Route BPK Q295 PAAVO M604 GIVPO DCT VENAS DCT LARGA DCT SOPTO DCT DOREV DCT TESPI
Aircraft A20N/M-SDE2E3FGHIRWXY/LB1

Departure

Time 2026-04-23 17:23
Airport London Heathrow Airport (EGLL)

Arrival

Time 2026-04-23 18:55
Airport Copenhagen Kastrup Airport (EKCH)
Time Latitude Longitude Altitude Speed Heading
2026-04-23 17:01 51.46857 -0.44681 93 ft 0 kts 267°
2026-04-23 17:12 51.46857 -0.44662 93 ft 4 kts 266°
2026-04-23 17:12 51.46860 -0.44619 93 ft 4 kts 260°
2026-04-23 17:12 51.46867 -0.44579 91 ft 4 kts 238°
2026-04-23 17:12 51.46881 -0.44558 93 ft 1 kts 180°
2026-04-23 17:13 51.46882 -0.44558 93 ft 0 kts 180°
2026-04-23 17:15 51.46880 -0.44558 93 ft 1 kts 180°
2026-04-23 17:16 51.46834 -0.44557 90 ft 12 kts 180°
2026-04-23 17:16 51.46734 -0.44556 90 ft 15 kts 180°
2026-04-23 17:16 51.46665 -0.44638 90 ft 14 kts 266°
2026-04-23 17:16 51.46664 -0.44793 90 ft 14 kts 270°
2026-04-23 17:17 51.46663 -0.44959 90 ft 19 kts 270°
2026-04-23 17:17 51.46663 -0.45219 90 ft 26 kts 270°
2026-04-23 17:17 51.46662 -0.45506 90 ft 26 kts 270°
2026-04-23 17:17 51.46660 -0.45792 90 ft 26 kts 270°
2026-04-23 17:18 51.46658 -0.46362 93 ft 25 kts 270°
2026-04-23 17:18 51.46658 -0.46642 93 ft 25 kts 269°
2026-04-23 17:18 51.46656 -0.46924 91 ft 25 kts 270°
2026-04-23 17:19 51.46655 -0.47205 91 ft 25 kts 270°
2026-04-23 17:19 51.46655 -0.47486 90 ft 25 kts 270°
2026-04-23 17:19 51.46654 -0.47763 90 ft 25 kts 270°
2026-04-23 17:19 51.46653 -0.48033 90 ft 24 kts 270°
2026-04-23 17:20 51.46652 -0.48118 90 ft 0 kts 269°
2026-04-23 17:20 51.46652 -0.48126 90 ft 1 kts 269°
2026-04-23 17:21 51.46640 -0.48198 93 ft 7 kts 223°
2026-04-23 17:21 51.46636 -0.48202 92 ft 2 kts 216°
2026-04-23 17:21 51.46513 -0.48212 91 ft 15 kts 172°
2026-04-23 17:22 51.46479 -0.48101 90 ft 0 kts 89°
2026-04-23 17:22 51.46481 -0.47996 90 ft 36 kts 89°
2026-04-23 17:23 51.46504 -0.45692 213 ft 153 kts 89°
2026-04-23 17:23 51.46536 -0.43933 796 ft 162 kts 88°
2026-04-23 17:23 51.46906 -0.40096 2232 ft 195 kts 65°
2026-04-23 17:24 51.47883 -0.38329 2745 ft 234 kts 39°
2026-04-23 17:24 51.49346 -0.36783 3241 ft 267 kts 39°
2026-04-23 17:24 51.51905 -0.32286 4941 ft 264 kts 69°
2026-04-23 17:25 51.53042 -0.26911 5937 ft 253 kts 75°
2026-04-23 17:25 51.53573 -0.24246 5993 ft 255 kts 75°
2026-04-23 17:26 51.55200 -0.19202 5995 ft 265 kts 42°
2026-04-23 17:26 51.58818 -0.17733 6249 ft 276 kts 12°
2026-04-23 17:27 51.62513 -0.16365 6491 ft 275 kts 19°
2026-04-23 17:27 51.64361 -0.15547 6958 ft 277 kts 19°
2026-04-23 17:27 51.66228 -0.14698 7959 ft 279 kts 19°
2026-04-23 17:27 51.68077 -0.13854 9069 ft 281 kts 19°
2026-04-23 17:28 51.69969 -0.12983 10098 ft 285 kts 19°
2026-04-23 17:28 51.71880 -0.12097 10941 ft 294 kts 20°
2026-04-23 17:28 51.73779 -0.10670 11357 ft 312 kts 40°
2026-04-23 17:28 51.75158 -0.07903 11798 ft 326 kts 66°
2026-04-23 17:29 51.75893 -0.04409 12551 ft 332 kts 78°
2026-04-23 17:29 51.76277 -0.00705 13421 ft 337 kts 84°
2026-04-23 17:29 51.76690 0.06910 14351 ft 344 kts 86°
2026-04-23 17:30 51.76819 0.09455 14393 ft 345 kts 86°
2026-04-23 17:30 51.77404 0.18517 15702 ft 353 kts 84°
2026-04-23 17:30 51.77707 0.22474 16555 ft 357 kts 84°
2026-04-23 17:31 51.78028 0.26472 17348 ft 362 kts 84°
2026-04-23 17:31 51.78358 0.30531 18131 ft 367 kts 84°
2026-04-23 17:31 51.78693 0.34639 18863 ft 372 kts 84°
2026-04-23 17:31 51.79031 0.38809 19515 ft 377 kts 84°
2026-04-23 17:32 51.79369 0.43017 20177 ft 380 kts 83°
2026-04-23 17:32 51.79711 0.47291 20827 ft 385 kts 84°
2026-04-23 17:32 51.80053 0.51605 21462 ft 390 kts 83°
2026-04-23 17:32 51.80394 0.55924 22083 ft 395 kts 83°
2026-04-23 17:33 51.80742 0.60348 22687 ft 400 kts 83°
2026-04-23 17:33 51.81297 0.64769 23290 ft 405 kts 74°
2026-04-23 17:33 51.82188 0.69104 23879 ft 409 kts 70°
2026-04-23 17:33 51.83204 0.73427 24282 ft 413 kts 69°
2026-04-23 17:34 51.84291 0.77731 24473 ft 415 kts 68°
2026-04-23 17:34 51.85554 0.81961 24877 ft 420 kts 61°
2026-04-23 17:34 51.89178 0.89443 25827 ft 428 kts 46°
2026-04-23 17:35 51.91322 0.92811 26265 ft 432 kts 44°
2026-04-23 17:35 51.95792 0.99335 27135 ft 438 kts 43°
2026-04-23 17:35 51.98083 1.02613 27578 ft 441 kts 43°
2026-04-23 17:36 52.00389 1.05920 27982 ft 444 kts 43°
2026-04-23 17:36 52.02706 1.09269 28374 ft 447 kts 43°
2026-04-23 17:36 52.05079 1.12562 28785 ft 451 kts 39°
2026-04-23 17:36 52.07559 1.15704 29180 ft 453 kts 39°
2026-04-23 17:37 52.10072 1.18826 29555 ft 457 kts 38°
2026-04-23 17:37 52.12601 1.21984 29891 ft 460 kts 39°
2026-04-23 17:37 52.17547 1.28559 30651 ft 463 kts 41°
2026-04-23 17:38 52.20010 1.31929 31079 ft 462 kts 41°
2026-04-23 17:38 52.22468 1.35308 31480 ft 462 kts 41°
2026-04-23 17:38 52.24922 1.38680 31900 ft 461 kts 41°
2026-04-23 17:38 52.27374 1.42045 32308 ft 461 kts 41°
2026-04-23 17:39 52.29829 1.45407 32722 ft 460 kts 41°
2026-04-23 17:39 52.32274 1.48766 33111 ft 459 kts 43°
2026-04-23 17:39 52.34589 1.52354 33500 ft 458 kts 46°
2026-04-23 17:39 52.36845 1.56022 33892 ft 457 kts 47°
2026-04-23 17:40 52.39042 1.59663 34258 ft 456 kts 47°
2026-04-23 17:40 52.41255 1.63376 34602 ft 455 kts 47°
2026-04-23 17:40 52.43456 1.67092 34939 ft 454 kts 47°
2026-04-23 17:40 52.45652 1.70809 35239 ft 453 kts 47°
2026-04-23 17:41 52.47843 1.74523 35528 ft 453 kts 47°
2026-04-23 17:41 52.52215 1.81939 36090 ft 452 kts 47°
2026-04-23 17:41 52.54401 1.85649 36367 ft 452 kts 47°
2026-04-23 17:42 52.58736 1.93024 36861 ft 452 kts 48°
2026-04-23 17:42 52.60919 1.96744 37111 ft 452 kts 48°
2026-04-23 17:42 52.63097 2.00461 37355 ft 452 kts 48°
2026-04-23 17:43 52.65276 2.04187 37587 ft 451 kts 48°
2026-04-23 17:43 52.67452 2.07914 37821 ft 452 kts 48°
2026-04-23 17:43 52.69629 2.11647 38049 ft 451 kts 48°
2026-04-23 17:43 52.71804 2.15385 38277 ft 451 kts 48°
2026-04-23 17:44 52.73976 2.19122 38491 ft 451 kts 48°
2026-04-23 17:44 52.76148 2.22865 38702 ft 452 kts 48°
2026-04-23 17:44 52.80458 2.30309 39127 ft 451 kts 48°
2026-04-23 17:45 52.82625 2.34060 39286 ft 451 kts 48°
2026-04-23 17:45 52.86964 2.41589 39442 ft 453 kts 48°
2026-04-23 17:46 52.93467 2.52915 39446 ft 452 kts 48°
2026-04-23 17:46 52.97899 2.60217 39454 ft 454 kts 40°
2026-04-23 17:47 53.03257 2.65783 39448 ft 456 kts 30°
2026-04-23 17:48 53.11765 2.72943 39449 ft 457 kts 27°
2026-04-23 17:48 53.17480 2.77629 39450 ft 458 kts 27°
2026-04-23 17:49 53.23147 2.82328 39447 ft 458 kts 28°
2026-04-23 17:49 53.28856 2.87085 39448 ft 459 kts 27°
2026-04-23 17:50 53.34655 2.91556 39441 ft 459 kts 25°
2026-04-23 17:50 53.43430 2.98065 39443 ft 460 kts 25°
2026-04-23 17:51 53.49272 3.02443 39444 ft 460 kts 25°
2026-04-23 17:52 53.57985 3.09040 39445 ft 460 kts 26°
2026-04-23 17:52 53.66740 3.15707 39454 ft 460 kts 26°
2026-04-23 17:53 53.75470 3.22382 39459 ft 464 kts 26°
2026-04-23 17:54 53.81355 3.26899 39460 ft 465 kts 26°
2026-04-23 17:54 53.90189 3.33705 39461 ft 465 kts 26°
2026-04-23 17:55 53.99009 3.40532 39451 ft 464 kts 26°
2026-04-23 17:56 54.04886 3.45099 39448 ft 464 kts 26°
2026-04-23 17:56 54.13652 3.51938 39447 ft 464 kts 26°
2026-04-23 17:57 54.19518 3.56533 39445 ft 464 kts 26°
2026-04-23 17:58 54.28315 3.63449 39449 ft 464 kts 26°
2026-04-23 17:58 54.34083 3.68212 39452 ft 463 kts 28°
2026-04-23 17:59 54.39802 3.73306 39449 ft 463 kts 29°
2026-04-23 17:59 54.45507 3.78451 39448 ft 463 kts 28°
2026-04-23 18:00 54.51217 3.83579 39449 ft 463 kts 28°
2026-04-23 18:00 54.56936 3.88703 39449 ft 463 kts 28°
2026-04-23 18:01 54.62611 3.93798 39443 ft 463 kts 28°
2026-04-23 18:01 54.68327 3.98945 39444 ft 463 kts 28°
2026-04-23 18:02 54.73070 4.03230 39440 ft 463 kts 28°
2026-04-23 18:02 54.79744 4.09281 39438 ft 463 kts 28°
2026-04-23 18:03 54.85311 4.14735 39436 ft 462 kts 37°
2026-04-23 18:03 54.90047 4.22207 39436 ft 460 kts 47°
2026-04-23 18:04 54.94431 4.30331 39434 ft 461 kts 49°
2026-04-23 18:04 54.98733 4.38589 39427 ft 461 kts 49°
2026-04-23 18:05 55.03008 4.46805 39422 ft 461 kts 49°
2026-04-23 18:05 55.07321 4.55070 39421 ft 461 kts 49°
2026-04-23 18:06 55.11646 4.63363 39420 ft 462 kts 49°
2026-04-23 18:06 55.15964 4.71669 39416 ft 462 kts 49°
2026-04-23 18:07 55.20288 4.80015 39414 ft 462 kts 49°
2026-04-23 18:07 55.24591 4.88354 39411 ft 463 kts 49°
2026-04-23 18:08 55.28066 4.95465 39407 ft 462 kts 56°
2026-04-23 18:08 55.30169 5.01904 39409 ft 458 kts 69°
2026-04-23 18:08 55.31173 5.07180 39403 ft 455 kts 79°
2026-04-23 18:09 55.32454 5.18046 39400 ft 455 kts 82°
2026-04-23 18:09 55.33484 5.29012 39397 ft 455 kts 83°
2026-04-23 18:10 55.34489 5.39999 39392 ft 456 kts 83°
2026-04-23 18:10 55.35509 5.50926 39387 ft 457 kts 83°
2026-04-23 18:11 55.36547 5.61943 39386 ft 457 kts 83°
2026-04-23 18:11 55.37580 5.72976 39380 ft 458 kts 83°
2026-04-23 18:12 55.38603 5.84024 39375 ft 458 kts 83°
2026-04-23 18:12 55.39616 5.95089 39369 ft 459 kts 83°
2026-04-23 18:13 55.40614 6.06110 39363 ft 459 kts 83°
2026-04-23 18:13 55.41611 6.17225 39357 ft 460 kts 83°
2026-04-23 18:14 55.42432 6.26480 39356 ft 461 kts 83°
2026-04-23 18:14 55.43576 6.39511 39346 ft 461 kts 83°
2026-04-23 18:15 55.44538 6.50599 39341 ft 461 kts 83°
2026-04-23 18:15 55.45499 6.61797 39333 ft 462 kts 83°
2026-04-23 18:16 55.46450 6.73003 39328 ft 463 kts 83°
2026-04-23 18:16 55.47392 6.84225 39326 ft 463 kts 83°
2026-04-23 18:17 55.48787 7.01087 39313 ft 463 kts 83°
2026-04-23 18:17 55.49697 7.12249 39308 ft 463 kts 83°
2026-04-23 18:18 55.50603 7.23496 39299 ft 463 kts 84°
2026-04-23 18:18 55.50938 7.34827 39299 ft 463 kts 90°
2026-04-23 18:19 55.51050 7.46186 39295 ft 463 kts 90°
2026-04-23 18:19 55.51097 7.57544 39290 ft 463 kts 91°
2026-04-23 18:20 55.51126 7.68827 39286 ft 463 kts 90°
2026-04-23 18:20 55.51150 7.80176 39280 ft 462 kts 90°
2026-04-23 18:21 55.51165 7.91521 39192 ft 461 kts 90°
2026-04-23 18:21 55.51170 7.97161 38677 ft 459 kts 90°
2026-04-23 18:21 55.51171 8.02788 38169 ft 459 kts 90°
2026-04-23 18:22 55.51170 8.08365 37763 ft 462 kts 90°
2026-04-23 18:22 55.51166 8.14035 37356 ft 464 kts 90°
2026-04-23 18:22 55.51159 8.19736 36956 ft 465 kts 90°
2026-04-23 18:22 55.51151 8.25444 36565 ft 466 kts 90°
2026-04-23 18:23 55.51143 8.29218 36318 ft 466 kts 90°
2026-04-23 18:23 55.51108 8.42601 35431 ft 467 kts 90°
2026-04-23 18:24 55.51066 8.54061 34706 ft 468 kts 90°
2026-04-23 18:24 55.51041 8.59730 34354 ft 468 kts 90°
2026-04-23 18:24 55.51014 8.65459 33971 ft 468 kts 90°
2026-04-23 18:25 55.50951 8.76969 33168 ft 469 kts 90°
2026-04-23 18:25 55.50915 8.82724 32777 ft 469 kts 89°
2026-04-23 18:25 55.50877 8.88477 32388 ft 470 kts 90°
2026-04-23 18:25 55.50836 8.94245 32007 ft 470 kts 90°
2026-04-23 18:26 55.50792 9.00011 31615 ft 470 kts 89°
2026-04-23 18:26 55.50745 9.05778 31240 ft 471 kts 89°
2026-04-23 18:26 55.50696 9.11554 30870 ft 471 kts 89°
2026-04-23 18:26 55.50644 9.17256 30514 ft 471 kts 89°
2026-04-23 18:27 55.50589 9.23036 30139 ft 471 kts 89°
2026-04-23 18:27 55.50530 9.28819 29715 ft 472 kts 89°
2026-04-23 18:27 55.50470 9.34611 29303 ft 473 kts 89°
2026-04-23 18:27 55.50407 9.40407 28899 ft 473 kts 89°
2026-04-23 18:28 55.50341 9.46217 28493 ft 474 kts 89°
2026-04-23 18:28 55.50296 9.50063 28233 ft 474 kts 89°
2026-04-23 18:28 55.50225 9.55868 27838 ft 473 kts 89°
2026-04-23 18:28 55.50127 9.63514 27323 ft 469 kts 89°
2026-04-23 18:29 55.50050 9.69258 26940 ft 467 kts 89°
2026-04-23 18:29 55.49971 9.74957 26560 ft 464 kts 89°
2026-04-23 18:29 55.49891 9.80630 26187 ft 461 kts 89°
2026-04-23 18:29 55.49808 9.86270 25800 ft 459 kts 89°
2026-04-23 18:30 55.49752 9.89987 25559 ft 457 kts 89°
2026-04-23 18:30 55.49665 9.95573 25193 ft 455 kts 89°
2026-04-23 18:30 55.49577 10.01129 24838 ft 452 kts 89°
2026-04-23 18:30 55.49487 10.06663 24448 ft 450 kts 89°
2026-04-23 18:31 55.49394 10.12165 24015 ft 447 kts 89°
2026-04-23 18:31 55.49269 10.19392 23386 ft 444 kts 89°
2026-04-23 18:31 55.49172 10.24814 22876 ft 441 kts 89°
2026-04-23 18:31 55.49073 10.30202 22366 ft 437 kts 89°
2026-04-23 18:32 55.49006 10.33810 22017 ft 435 kts 89°
2026-04-23 18:32 55.48906 10.39047 21512 ft 432 kts 89°
2026-04-23 18:32 55.48803 10.44311 21014 ft 428 kts 89°
2026-04-23 18:32 55.48700 10.49543 20528 ft 425 kts 89°
2026-04-23 18:33 55.48594 10.54739 20034 ft 423 kts 89°
2026-04-23 18:33 55.48488 10.59881 19555 ft 416 kts 89°
2026-04-23 18:33 55.48380 10.64943 19082 ft 410 kts 89°
2026-04-23 18:33 55.48271 10.69942 18625 ft 407 kts 89°
2026-04-23 18:34 55.48162 10.74912 18124 ft 404 kts 89°
2026-04-23 18:34 55.48052 10.79846 17599 ft 402 kts 88°
2026-04-23 18:34 55.47941 10.84746 17084 ft 399 kts 88°
2026-04-23 18:34 55.47829 10.89613 16578 ft 396 kts 88°
2026-04-23 18:35 55.47715 10.94447 16081 ft 393 kts 88°
2026-04-23 18:35 55.47602 10.99189 15593 ft 391 kts 88°
2026-04-23 18:35 55.47486 11.03954 15116 ft 388 kts 88°
2026-04-23 18:35 55.47368 11.08691 14645 ft 385 kts 88°
2026-04-23 18:36 55.47250 11.13387 14160 ft 383 kts 88°
2026-04-23 18:36 55.47131 11.18059 13669 ft 380 kts 88°
2026-04-23 18:36 55.47012 11.22700 13152 ft 378 kts 88°
2026-04-23 18:36 55.46891 11.27310 12639 ft 375 kts 88°
2026-04-23 18:37 55.46770 11.31892 12112 ft 373 kts 88°
2026-04-23 18:37 55.46647 11.36437 11567 ft 370 kts 88°
2026-04-23 18:37 55.46524 11.40941 11022 ft 366 kts 88°
2026-04-23 18:37 55.46401 11.45321 10506 ft 359 kts 88°
2026-04-23 18:38 55.46278 11.49678 9982 ft 353 kts 88°
2026-04-23 18:38 55.46154 11.53965 9435 ft 346 kts 88°
2026-04-23 18:38 55.46032 11.58139 8999 ft 336 kts 88°
2026-04-23 18:38 55.45911 11.62198 8609 ft 327 kts 88°
2026-04-23 18:39 55.45793 11.66135 8227 ft 318 kts 88°
2026-04-23 18:39 55.45678 11.69975 7844 ft 310 kts 88°
2026-04-23 18:39 55.45565 11.73725 7471 ft 303 kts 88°
2026-04-23 18:39 55.45455 11.77400 7094 ft 297 kts 88°
2026-04-23 18:40 55.45347 11.80952 6778 ft 291 kts 88°
2026-04-23 18:40 55.45240 11.84491 6461 ft 288 kts 88°
2026-04-23 18:40 55.45134 11.87999 6124 ft 286 kts 88°
2026-04-23 18:40 55.45028 11.91493 5776 ft 285 kts 89°
2026-04-23 18:41 55.44920 11.94959 5458 ft 283 kts 89°
2026-04-23 18:41 55.44810 11.98417 5132 ft 282 kts 89°
2026-04-23 18:41 55.44699 12.01855 4805 ft 280 kts 90°
2026-04-23 18:41 55.44588 12.05266 4467 ft 279 kts 90°
2026-04-23 18:42 55.44476 12.08667 4132 ft 277 kts 90°
2026-04-23 18:42 55.44363 12.12045 3800 ft 276 kts 90°
2026-04-23 18:42 55.44251 12.15371 3474 ft 275 kts 91°
2026-04-23 18:42 55.44138 12.18734 3144 ft 274 kts 91°
2026-04-23 18:43 55.44023 12.22076 2986 ft 273 kts 91°
2026-04-23 18:43 55.43909 12.25410 2989 ft 273 kts 91°
2026-04-23 18:43 55.43793 12.28755 3002 ft 274 kts 91°
2026-04-23 18:43 55.43753 12.32095 3006 ft 272 kts 82°
2026-04-23 18:44 55.44102 12.35342 3007 ft 269 kts 73°
2026-04-23 18:44 55.44575 12.38539 2778 ft 270 kts 72°
2026-04-23 18:44 55.45069 12.41711 2362 ft 267 kts 69°
2026-04-23 18:44 55.45986 12.44445 2050 ft 256 kts 40°
2026-04-23 18:45 55.47371 12.46297 2001 ft 254 kts 34°
2026-04-23 18:45 55.48501 12.48705 2000 ft 261 kts 61°
2026-04-23 18:45 55.49119 12.51726 2118 ft 264 kts 71°
2026-04-23 18:45 55.49434 12.54952 2670 ft 272 kts 89°
2026-04-23 18:46 55.48964 12.58170 2953 ft 275 kts 116°
2026-04-23 18:46 55.47724 12.60724 3000 ft 277 kts 145°
2026-04-23 18:46 55.45966 12.62025 3002 ft 275 kts 173°
2026-04-23 18:46 55.44069 12.62123 3001 ft 273 kts 186°
2026-04-23 18:47 55.42177 12.61880 3005 ft 273 kts 188°
2026-04-23 18:47 55.40286 12.61594 3004 ft 273 kts 188°
2026-04-23 18:47 55.38394 12.61303 3007 ft 273 kts 188°
2026-04-23 18:47 55.36592 12.60468 3003 ft 265 kts 212°
2026-04-23 18:48 55.35278 12.58401 2998 ft 255 kts 241°
2026-04-23 18:48 55.34710 12.55541 3013 ft 247 kts 269°
2026-04-23 18:48 55.35028 12.52649 3016 ft 242 kts 298°
2026-04-23 18:48 55.36033 12.50304 3014 ft 241 kts 313°
2026-04-23 18:49 55.37206 12.48187 3004 ft 242 kts 315°
2026-04-23 18:49 55.38361 12.46152 2991 ft 226 kts 315°
2026-04-23 18:49 55.39428 12.44272 2993 ft 209 kts 315°
2026-04-23 18:49 55.40424 12.42519 3034 ft 199 kts 315°
2026-04-23 18:50 55.41070 12.41379 3024 ft 199 kts 314°
2026-04-23 18:50 55.42445 12.39173 3005 ft 202 kts 329°
2026-04-23 18:50 55.43819 12.38719 3004 ft 208 kts
2026-04-23 18:50 55.45202 12.39410 2998 ft 212 kts 18°
2026-04-23 18:51 55.46431 12.40711 2990 ft 199 kts 33°
2026-04-23 18:51 55.47445 12.42246 2991 ft 188 kts 36°
2026-04-23 18:51 55.48427 12.43758 2882 ft 187 kts 35°
2026-04-23 18:51 55.49406 12.45246 2621 ft 186 kts 36°
2026-04-23 18:52 55.50380 12.46738 2361 ft 185 kts 36°
2026-04-23 18:52 55.51350 12.48231 2093 ft 185 kts 36°
2026-04-23 18:52 55.52315 12.49715 1839 ft 184 kts 37°
2026-04-23 18:52 55.53274 12.51192 1586 ft 182 kts 37°
2026-04-23 18:53 55.54208 12.52632 1352 ft 172 kts 37°
2026-04-23 18:53 55.55068 12.53958 1108 ft 162 kts 37°
2026-04-23 18:53 55.55891 12.55225 892 ft 152 kts 38°
2026-04-23 18:53 55.56659 12.56410 688 ft 142 kts 38°
2026-04-23 18:54 55.57397 12.57548 522 ft 140 kts 39°
2026-04-23 18:54 55.58124 12.58669 361 ft 136 kts 39°
2026-04-23 18:54 55.58823 12.59742 161 ft 130 kts 39°
2026-04-23 18:54 55.59525 12.60811 41 ft 135 kts 39°
2026-04-23 18:55 55.60204 12.61856 21 ft 110 kts 43°
2026-04-23 18:55 55.60607 12.62492 23 ft 62 kts 41°
2026-04-23 18:55 55.60855 12.62811 21 ft 33 kts 21°
2026-04-23 18:55 55.60987 12.62873 20 ft 12 kts 11°
2026-04-23 18:56 55.61044 12.62893 20 ft 13 kts 11°
2026-04-23 18:56 55.61159 12.62973 20 ft 14 kts 38°
2026-04-23 18:56 55.61237 12.63095 20 ft 16 kts 41°
2026-04-23 18:56 55.61322 12.63226 20 ft 17 kts 41°
2026-04-23 18:57 55.61414 12.63368 20 ft 18 kts 41°
2026-04-23 18:57 55.61514 12.63522 20 ft 20 kts 41°
2026-04-23 18:57 55.61621 12.63688 20 ft 21 kts 41°
2026-04-23 18:57 55.61735 12.63865 20 ft 23 kts 41°
2026-04-23 18:58 55.61857 12.64052 22 ft 24 kts 38°
2026-04-23 18:58 55.62009 12.64187 20 ft 25 kts 26°
2026-04-23 18:58 55.62170 12.64322 20 ft 27 kts 25°
2026-04-23 18:58 55.62265 12.64476 22 ft 15 kts 67°
2026-04-23 18:59 55.62308 12.64648 22 ft 16 kts 66°
2026-04-23 18:59 55.62279 12.64824 21 ft 16 kts 123°
2026-04-23 18:59 55.62215 12.64994 20 ft 17 kts 123°
2026-04-23 18:59 55.62201 12.65171 20 ft 16 kts 37°
2026-04-23 19:00 55.62314 12.65205 20 ft 17 kts
2026-04-23 19:00 55.62436 12.65202 20 ft 18 kts 359°
2026-04-23 19:00 55.62544 12.65197 21 ft 13 kts 359°
2026-04-23 19:00 55.62555 12.65197 20 ft 1 kts 359°
2026-04-23 19:01 55.62556 12.65197 20 ft 0 kts 359°
2026-04-23 19:02 55.62557 12.65197 20 ft 1 kts 359°
2026-04-23 19:02 55.62598 12.65195 20 ft 10 kts 359°
2026-04-23 19:03 55.62674 12.65188 20 ft 11 kts 356°
2026-04-23 19:03 55.62725 12.65183 22 ft 6 kts 356°
2026-04-23 19:03 55.62731 12.65182 21 ft 0 kts 356°